Hauptseite
METAR-TAF:

METAR-TAF

Flughäfen :

Flughafen Rimini

Rimini, Italien

Breite: 44-02N, Länge: 012-37E, Höhe: 12 m

Beobachtung

Neuester Wetterbericht von vor 11 Minuten, um 08:20 UTC
Wind 3 kt aus West, variierte zwischen Südwest und West/Nordwest
Temperatur 18°C
Luftfeuchtigkeit 88%
Luftdruck 1020 hPa
Sichtweite: 4000 m
Leicht bewölkt in der Höhe von 2000 ft
Durchbrochene Bewölkung in der Höhe von 4000 ft
feuchter Dunst

METAR: LIPR 160820Z 26003KT 230V300 4000 BR FEW020 BKN040 18/16 Q1020

Zeit: 10:31 (08:31 UTC)

Prognose

Neuester Wetterbericht von vor 9 Stunden und 31 Minuten, um 23:00 UTC
Gültige Prognose vom 16 um 00 UTC bis 16 um 09 UTC
Wind 8 kt aus Südost
Sichtweite: 3000 m
Leicht bewölkt in der Höhe von 1500 ft
feuchter Dunst
Zeitweise
vom 16 um 00 UTC bis 16 um 06 UTC
Sichtweite: 0800 m
Nebelschwaden

TAF: LIPR 152300Z 1600/1609 13008KT 3000 BR FEW015 TEMPO 1600/1606 0800 BCFG

Wetterbeobachtungen und Prognosen von mehr als 4000 Flughäfen (METAR und TAF Bericht).

Die verfügbaren Stationen werden durch gelbe und rote Markierungen auf der Karte dargestellt.

Führen Sie die Maus auf sie, um den Namen der Station zu sehen.

Darauf klicken, um die Beobachtung von Wetterbeobachtungen und Prognosen zu sehen.

Um die Karte zu ändern : klicken Sie auf den grünen Tasten mit einem schwarzen Kreuz Zum Vergrößern, auf den grünen Button mit einem Gedankenstrich zu verkleinern, oder auf die grünen Pfeile für benachbarte Karten.


METAR-TAF: